Regional Weather Roundup
Issued by NWS

Home | Current Version | Previous Version | Graphics & Text | Print | Product List | Glossary On
Versions: 1 2 3 4 5 6 7 8 9 10 11 12 13 14 15 16 17 18 19 20 21 22 23 24 25 26 27 28 29 30 31 32 33 34 35 36 37 38 39 40 41 42 43 44 45 46 47 48 49 50
000
ASUS45 KBOI 191210
RWRID
WEATHER ROUNDUP FOR IDAHO
NATIONAL WEATHER SERVICE BOISE ID
600 AM MDT TUE AUG 19 2014

NOTE: "FAIR" INDICATES FEW OR NO CLOUDS BELOW 12000 FEET
WITH NO SIGNIFICANT WEATHER AND/OR OBSTRUCTIONS TO VISIBILITY

IDZ012-014-191300-
SOUTHWEST IDAHO


CITY           SKY/WX    TMP DP  RH WIND       PRES   REMARKS
BOISE          PTCLDY    70  41  34 SE10      29.78F
CALDWELL       PTCLDY    61  45  55 NW5       29.79F
MOUNTAIN HOME  MOCLDY    66  48  51 E5        29.80S
$$

IDZ016-017-191300-
SOUTHCENTRAL IDAHO


CITY           SKY/WX    TMP DP  RH WIND       PRES   REMARKS
BURLEY         MOCLDY    67  48  50 N8        29.85F
JEROME         PTCLDY    64  47  53 NE15      29.85F
TWIN FALLS     PTCLDY    62  45  53 S6        29.86S
$$

IDZ019>023-191300-
SOUTHEAST IDAHO


CITY           SKY/WX    TMP DP  RH WIND       PRES   REMARKS
IDAHO FALLS    PTCLDY    51  47  86 CALM      29.96R
POCATELLO      CLEAR     55  50  83 VRB3      29.94R
REXBURG        CLEAR     49  44  83 CALM      29.96R
$$

IDZ006-010-011-018-031-032-191300-
CENTRAL IDAHO MOUNTAINS


CITY           SKY/WX    TMP DP  RH WIND       PRES   REMARKS
MCCALL         CLEAR     51  43  74 CALM      29.93F
HAILEY         PTCLDY    55  41  58 NW9       29.99F
STANLEY          N/A     39  31  72 SE3       30.08S
SALMON         PTCLDY    48  46  93 CALM      29.93R
CHALLIS        PTCLDY    58  39  49 CALM      29.97F
$$

IDZ002-004-006-007-026-191300-
NORTHERN IDAHO


CITY           SKY/WX    TMP DP  RH WIND       PRES   REMARKS
LEWISTON       CLEAR     68  49  50 CALM      29.75S
LOWELL           N/A     58  53  84 N3        29.84R
COEUR D`ALENE  CLEAR     63  55  77 S6        29.76S
MULLAN PASS    CLEAR     61  45  55 SW6       29.97F
$$



USA.gov is the U.S. government's official web portal to all federal, state and local government web resources and services.